Colby, KS

5:26 AM CST on January 21, 2018 (GMT -0600)
Shaltz

Weather History for KCBK - March, 2013

Change the Weather History Date:

Monday, March 25, 2013

  Actual Average (KGLD) Record (KGLD)
Temperature  
Mean Temperature 16 °F -  
Max Temperature 26 °F 55 °F 85 °F (1907)
Min Temperature 5 °F 28 °F -6 °F (1965)
Degree Days  
Heating Degree Days 50    
Moisture  
Dew Point 12 °F    
Average Humidity 87    
Maximum Humidity 100    
Minimum Humidity 74    
Precipitation  
Precipitation 0.00 in - - ()
Sea Level Pressure  
Sea Level Pressure 30.29 in    
Wind  
Wind Speed 12 mph (WNW)    
Max Wind Speed 18 mph    
Max Gust Speed 22 mph    
Visibility 10 miles    
Events      
Averages and records for this station are not official NWS values.
T = Trace of Precipitation, MM = Missing Value Source: NWS Daily Summary

Daily Weather History Graph

Daily Weather History Graph

Search for Another Location

Airport or City:

Trip Planner

Search our weather history database for the weather conditions in past years. The results will help you decide how hot, cold, wet, or windy it might be!

Date:

Astronomy

Mar. 25, 2013 Rise Set
Actual Time 7:39 AM CDT 8:01 PM CDT
Civil Twilight 7:12 AM CDT 8:28 PM CDT
Nautical Twilight 6:40 AM CDT 9:00 PM CDT
Astronomical Twilight 6:08 AM CDT 9:32 PM CDT
Moon 6:35 PM CDT (3/25) 6:23 AM CDT (3/25)
Length of Visible Light 13h 16m
Length of Day
12h 22m
Waxing Gibbous, 96% of the Moon is Illuminated
Mar 25
Waxing Gibbous
Mar 27
Full
Apr 2
Last Quarter
Apr 10
New
Apr 18
First Quarter

Hourly Weather History & Observations

Time (CDT) Temp. Windchill Dew Point Humidity Pressure Visibility Wind Dir Wind Speed Gust Speed Precip Events Conditions
12:15 AM 14.0 °F 0.5 °F 10.4 °F 86% 30.22 in 10.0 mi WNW 11.5 mph - N/A   Clear
12:35 AM 10.4 °F -4.1 °F 8.6 °F 92% 30.23 in 10.0 mi NW 11.5 mph - N/A   Clear
12:55 AM 12.2 °F -1.0 °F 8.6 °F 85% 30.23 in 10.0 mi NW 10.4 mph - N/A   Clear
1:15 AM 12.2 °F -2.5 °F 8.6 °F 85% 30.23 in 10.0 mi NW 12.7 mph - N/A   Clear
1:35 AM 12.2 °F -1.8 °F 8.6 °F 85% 30.24 in 10.0 mi NW 11.5 mph - N/A   Clear
1:55 AM 12.2 °F -1.0 °F 8.6 °F 85% 30.24 in 10.0 mi NW 10.4 mph - N/A   Clear
2:15 AM 10.4 °F -4.1 °F 8.6 °F 92% 30.25 in 10.0 mi WNW 11.5 mph - N/A   Clear
2:35 AM 8.6 °F -6.3 °F 6.8 °F 92% 30.25 in 10.0 mi WNW 11.5 mph - N/A   Clear
2:55 AM 8.6 °F -6.3 °F 6.8 °F 92% 30.26 in 10.0 mi WNW 11.5 mph - N/A   Clear
3:15 AM 8.6 °F -5.5 °F 5.0 °F 85% 30.26 in 10.0 mi NW 10.4 mph - N/A   Clear
3:35 AM 8.6 °F -7.0 °F 5.0 °F 85% 30.26 in 10.0 mi WNW 12.7 mph - N/A   Clear
3:55 AM 5.0 °F -9.1 °F 3.2 °F 92% 30.26 in 10.0 mi NW 9.2 mph - N/A   Clear
4:15 AM 6.8 °F -8.6 °F 5.0 °F 92% 30.26 in 10.0 mi WNW 11.5 mph - N/A   Clear
4:35 AM 8.6 °F -6.3 °F 5.0 °F 85% 30.25 in 10.0 mi NW 11.5 mph - N/A   Clear
4:55 AM 8.6 °F -7.0 °F 5.0 °F 85% 30.26 in 10.0 mi WNW 12.7 mph - N/A   Clear
5:15 AM 6.8 °F -8.6 °F 5.0 °F 92% 30.26 in 10.0 mi WNW 11.5 mph - N/A   Clear
5:35 AM 5.0 °F -10.8 °F 3.2 °F 92% 30.26 in 10.0 mi NW 11.5 mph - N/A   Clear
5:55 AM 8.6 °F -8.3 °F 5.0 °F 85% 30.26 in 10.0 mi WNW 15.0 mph - N/A   Clear
6:15 AM 6.8 °F -11.3 °F 5.0 °F 92% 30.26 in 10.0 mi WNW 16.1 mph - N/A   Clear
6:35 AM 6.8 °F -11.8 °F 5.0 °F 92% 30.26 in 10.0 mi WNW 17.3 mph - N/A   Clear
6:55 AM 8.6 °F -10.0 °F 5.0 °F 85% 30.27 in 10.0 mi WNW 18.4 mph - N/A   Clear
7:15 AM 8.6 °F -9.5 °F 5.0 °F 85% 30.27 in 10.0 mi WNW 17.3 mph - N/A   Clear
7:35 AM 6.8 °F -10.7 °F 5.0 °F 92% 30.27 in 10.0 mi NW 15.0 mph - N/A   Clear
7:55 AM 5.0 °F -10.0 °F 3.2 °F 92% 30.29 in 10.0 mi NW 10.4 mph - N/A   Clear
8:15 AM 6.8 °F -10.7 °F 5.0 °F 92% 30.29 in 10.0 mi WNW 15.0 mph - N/A   Clear
8:35 AM 8.6 °F -7.7 °F 5.0 °F 85% 30.30 in 10.0 mi WNW 13.8 mph - N/A   Clear
8:55 AM 8.6 °F -8.3 °F 5.0 °F 85% 30.30 in 10.0 mi WNW 15.0 mph - N/A   Clear
9:15 AM 10.4 °F -7.2 °F 6.8 °F 85% 30.31 in 10.0 mi WNW 17.3 mph - N/A   Clear
9:35 AM 10.4 °F -4.1 °F 8.6 °F 92% 30.32 in 10.0 mi WNW 11.5 mph - N/A   Clear
9:55 AM 12.2 °F -1.8 °F 8.6 °F 85% 30.32 in 10.0 mi NW 11.5 mph - N/A   Clear
10:15 AM 14.0 °F -0.8 °F 10.4 °F 86% 30.32 in 10.0 mi NW 13.8 mph - N/A   Clear
10:35 AM 15.8 °F 0.9 °F 12.2 °F 86% 30.32 in 10.0 mi NW 15.0 mph - N/A   Clear
10:55 AM 17.6 °F 3.7 °F 14.0 °F 86% 30.34 in 10.0 mi NW 13.8 mph - N/A   Clear
11:15 AM 19.4 °F 6.6 °F 14.0 °F 80% 30.34 in 10.0 mi NW 12.7 mph - N/A   Clear
11:35 AM 19.4 °F 5.5 °F 14.0 °F 80% 30.34 in 10.0 mi WNW 15.0 mph - N/A   Clear
11:55 AM 19.4 °F 4.5 °F 15.8 °F 86% 30.34 in 10.0 mi NW 17.3 mph - N/A   Clear
12:15 PM 21.2 °F 7.3 °F 15.8 °F 80% 30.34 in 10.0 mi WNW 16.1 mph - N/A   Clear
12:35 PM 21.2 °F 8.3 °F 17.6 °F 86% 30.34 in 10.0 mi WNW 13.8 mph - N/A   Clear
12:55 PM 21.2 °F 7.3 °F 17.6 °F 86% 30.33 in - WNW 16.1 mph - N/A   Clear
1:15 PM 21.2 °F 7.8 °F 17.6 °F 86% 30.32 in - WNW 15.0 mph - N/A   Clear
1:35 PM 21.2 °F 6.8 °F 17.6 °F 86% 30.32 in - WNW 17.3 mph - N/A   Unknown
1:55 PM 23.0 °F 8.7 °F 17.6 °F 80% 30.32 in - WNW 18.4 mph - N/A   Clear
2:15 PM 23.0 °F 10.1 °F 19.4 °F 86% 30.31 in - West 15.0 mph - N/A   Unknown
2:35 PM 23.0 °F 9.6 °F 19.4 °F 86% 30.31 in - WNW 16.1 mph - N/A   Clear
2:55 PM 24.8 °F 11.5 °F 17.6 °F 74% 30.31 in - NW 17.3 mph - N/A   Clear
3:15 PM 24.8 °F 11.5 °F 17.6 °F 74% 30.30 in - NW 17.3 mph 21.9 mph N/A   Clear
3:35 PM 24.8 °F 11.9 °F 19.4 °F 80% 30.30 in 10.0 mi NW 16.1 mph - N/A   Scattered Clouds
3:55 PM 26.6 °F 13.8 °F 19.4 °F 74% 30.30 in 10.0 mi NW 17.3 mph - N/A   Clear
4:15 PM 26.6 °F 13.8 °F 19.4 °F 74% 30.29 in 10.0 mi WNW 17.3 mph - N/A   Clear
4:35 PM 26.6 °F 15.2 °F 19.4 °F 74% 30.29 in 10.0 mi NW 13.8 mph - N/A   Clear
4:55 PM 26.6 °F 16.2 °F 19.4 °F 74% 30.29 in 10.0 mi NW 11.5 mph - N/A   Clear
5:15 PM 26.6 °F 16.2 °F 19.4 °F 74% 30.29 in 10.0 mi NW 11.5 mph - N/A   Clear
5:35 PM 26.6 °F 16.8 °F 19.4 °F 74% 30.29 in 10.0 mi West 10.4 mph - N/A   Scattered Clouds
5:55 PM 26.6 °F 17.5 °F 21.2 °F 80% 30.29 in 10.0 mi WNW 9.2 mph - N/A   Scattered Clouds
6:15 PM 26.6 °F 17.5 °F 21.2 °F 80% 30.29 in 10.0 mi WNW 9.2 mph - N/A   Clear
6:35 PM 24.8 °F 16.1 °F 19.4 °F 80% 30.29 in 10.0 mi WNW 8.1 mph - N/A   Clear
6:55 PM 23.0 °F 13.9 °F 19.4 °F 86% 30.29 in 10.0 mi West 8.1 mph - N/A   Clear
7:15 PM 21.2 °F 12.6 °F 19.4 °F 93% 30.29 in 10.0 mi West 6.9 mph - N/A   Clear
7:35 PM 19.4 °F 9.5 °F 17.6 °F 93% 30.30 in 10.0 mi West 8.1 mph - N/A   Clear
7:55 PM 17.6 °F 8.2 °F 14.0 °F 86% 30.30 in 10.0 mi West 6.9 mph - N/A   Clear
8:15 PM 15.8 °F 3.4 °F 14.0 °F 93% 30.29 in 10.0 mi West 10.4 mph - N/A   Clear
8:35 PM 15.8 °F 4.2 °F 14.0 °F 93% 30.29 in 10.0 mi WNW 9.2 mph - N/A   Clear
8:55 PM 15.8 °F 4.2 °F 14.0 °F 93% 30.29 in 10.0 mi West 9.2 mph - N/A   Clear
9:15 PM 12.2 °F 0.7 °F 12.2 °F 100% 30.30 in 10.0 mi West 8.1 mph - N/A   Clear
9:35 PM 12.2 °F -0.2 °F 10.4 °F 92% 30.30 in 10.0 mi West 9.2 mph - N/A   Clear
9:55 PM 10.4 °F -0.4 °F 8.6 °F 92% 30.31 in 10.0 mi WSW 6.9 mph - N/A   Clear
10:15 PM 10.4 °F -1.5 °F 10.4 °F 100% 30.31 in 10.0 mi WSW 8.1 mph - N/A   Clear
10:35 PM 10.4 °F -0.4 °F 8.6 °F 92% 30.31 in 10.0 mi West 6.9 mph - N/A   Clear
10:55 PM 8.6 °F -3.7 °F 8.6 °F 100% 30.31 in 10.0 mi WSW 8.1 mph - N/A   Clear
11:15 PM 8.6 °F -3.7 °F 8.6 °F 100% 30.32 in 10.0 mi WSW 8.1 mph - N/A   Clear
11:35 PM 8.6 °F -3.7 °F 8.6 °F 100% 30.32 in 10.0 mi WSW 8.1 mph - N/A   Clear
11:55 PM 10.4 °F -0.4 °F 8.6 °F 92% 30.31 in 10.0 mi West 6.9 mph - N/A   Clear